Previsão horária em Ablon-sur-Seine

Hoje, 25 Janeiro, Segunda-feira

Tempo Temperatura Precipitação Vento Pressão Humidade
00:00 0°C° 0 mm 4 m/s 742 mmHg 83%
01:00 0°C° 0 mm 5 m/s 742 mmHg 84%
02:00 0°C° 0 mm 5 m/s 743 mmHg 84%
03:00 0°C° 0 mm 5 m/s 743 mmHg 85%
04:00 0°C° 0 mm 5 m/s 743 mmHg 86%
05:00 -1°C° 0 mm 4 m/s 744 mmHg 86%
06:00 0°C° 0 mm 4 m/s 744 mmHg 87%
07:00 0°C° 0 mm 4 m/s 745 mmHg 85%
08:00 0°C° 0 mm 5 m/s 746 mmHg 84%
09:00 0°C° 0 mm 5 m/s 747 mmHg 82%
10:00 +1°C° 0 mm 5 m/s 748 mmHg 77%
11:00 +2°C° 0 mm 5 m/s 748 mmHg 71%
12:00 +2°C° 0 mm 5 m/s 750 mmHg 67%
13:00 +3°C° 0 mm 5 m/s 750 mmHg 65%
14:00 +4°C° 0 mm 4 m/s 751 mmHg 64%
15:00 +4°C° 0 mm 4 m/s 751 mmHg 62%
16:00 +3°C° 0 mm 3 m/s 752 mmHg 66%
17:00 +2°C° 0 mm 3 m/s 753 mmHg 69%
18:00 +1°C° 0 mm 3 m/s 754 mmHg 72%
19:00 +1°C° 0 mm 3 m/s 754 mmHg 74%
20:00 0°C° 0 mm 3 m/s 755 mmHg 76%
21:00 +1°C° 0 mm 2 m/s 756 mmHg 78%
22:00 0°C° 0 mm 3 m/s 756 mmHg 80%
23:00 0°C° 0 mm 3 m/s 756 mmHg 82%

Amanhã, 26 Janeiro, Terça-feira

Tempo Temperatura Precipitação Vento Pressão Humidade
00:00 0°C° 0 mm 3 m/s 757 mmHg 84%
01:00 0°C° 0 mm 3 m/s 757 mmHg 84%
02:00 0°C° 0 mm 3 m/s 757 mmHg 85%
03:00 -1°C° 0 mm 3 m/s 758 mmHg 85%
04:00 -1°C° 0 mm 2 m/s 758 mmHg 84%
05:00 -1°C° 0 mm 2 m/s 758 mmHg 82%
06:00 -1°C° 0 mm 2 m/s 758 mmHg 81%
07:00 +1°C° 0 mm 2 m/s 759 mmHg 78%
08:00 +1°C° 0 mm 2 m/s 759 mmHg 75%
09:00 +1°C° 0 mm 3 m/s 759 mmHg 72%
10:00 +2°C° 0 mm 3 m/s 759 mmHg 68%
11:00 +2°C° 0 mm 3 m/s 759 mmHg 64%
12:00 +3°C° 0 mm 3 m/s 760 mmHg 60%
13:00 +3°C° 0 mm 3 m/s 759 mmHg 60%
14:00 +3°C° 0 mm 3 m/s 759 mmHg 60%
15:00 +3°C° 0 mm 3 m/s 759 mmHg 60%
16:00 +3°C° 0 mm 3 m/s 758 mmHg 64%
17:00 +2°C° 0 mm 3 m/s 758 mmHg 68%
18:00 +1°C° 0 mm 3 m/s 758 mmHg 72%
19:00 +1°C° 0 mm 3 m/s 758 mmHg 74%
20:00 0°C° 0 mm 4 m/s 758 mmHg 77%
21:00 0°C° 0 mm 4 m/s 758 mmHg 79%
22:00 0°C° 0.1 mm 4 m/s 758 mmHg 79%
23:00 0°C° 0.1 mm 5 m/s 757 mmHg 80%

Depois de amanhã, 27 Janeiro, Quarta-feira

Tempo Temperatura Precipitação Vento Pressão Humidade
00:00 0°C° 0.1 mm 5 m/s 757 mmHg 80%
01:00 +1°C° 0 mm 5 m/s 757 mmHg 77%
02:00 +1°C° 0 mm 5 m/s 756 mmHg 73%
03:00 +1°C° 0 mm 5 m/s 755 mmHg 70%
04:00 +1°C° 0 mm 4 m/s 755 mmHg 72%
05:00 +1°C° 0 mm 4 m/s 755 mmHg 75%
06:00 +1°C° 0 mm 4 m/s 755 mmHg 77%
07:00 +1°C° 0 mm 4 m/s 755 mmHg 81%
08:00 +3°C° 0 mm 3 m/s 755 mmHg 85%
09:00 +3°C° 0 mm 3 m/s 755 mmHg 89%
10:00 +4°C° 0 mm 3 m/s 755 mmHg 89%
11:00 +5°C° 0 mm 3 m/s 755 mmHg 90%
12:00 +7°C° 0 mm 3 m/s 755 mmHg 91%
13:00 +7°C° 0 mm 3 m/s 755 mmHg 92%
14:00 +7°C° 0 mm 3 m/s 755 mmHg 93%
15:00 +8°C° 0 mm 3 m/s 754 mmHg 94%
16:00 +8°C° 0 mm 3 m/s 754 mmHg 94%
17:00 +8°C° 0 mm 3 m/s 754 mmHg 95%
18:00 +7°C° 0 mm 3 m/s 754 mmHg 95%
19:00 +7°C° 0.3 mm 3 m/s 754 mmHg 96%
20:00 +7°C° 0.3 mm 2 m/s 754 mmHg 97%
21:00 +7°C° 0.3 mm 2 m/s 754 mmHg 98%
22:00 +8°C° 1.6 mm 3 m/s 753 mmHg 98%
23:00 +8°C° 1.6 mm 3 m/s 753 mmHg 97%

28 Janeiro, Quinta-feira

Tempo Temperatura Precipitação Vento Pressão Humidade
00:00 +9°C° 1.6 mm 3 m/s 752 mmHg 97%
01:00 +8°C° 0.5 mm 4 m/s 752 mmHg 96%
02:00 +10°C° 0.5 mm 4 m/s 751 mmHg 94%
03:00 +10°C° 0.5 mm 5 m/s 750 mmHg 93%
04:00 +10°C° 0.3 mm 5 m/s 750 mmHg 92%
05:00 +9°C° 0.3 mm 6 m/s 750 mmHg 92%
06:00 +9°C° 0.3 mm 6 m/s 750 mmHg 92%
07:00 +10°C° 0.5 mm 6 m/s 750 mmHg 92%
08:00 +10°C° 0.5 mm 6 m/s 749 mmHg 92%
09:00 +10°C° 0.5 mm 6 m/s 749 mmHg 92%
10:00 +11°C° 0.4 mm 6 m/s 750 mmHg 86%
11:00 +13°C° 0.4 mm 6 m/s 750 mmHg 79%
12:00 +14°C° 0.4 mm 7 m/s 750 mmHg 73%
13:00 +14°C° 0.1 mm 6 m/s 750 mmHg 74%
14:00 +14°C° 0.1 mm 6 m/s 750 mmHg 74%
15:00 +14°C° 0.1 mm 5 m/s 750 mmHg 75%
16:00 +13°C° 0.1 mm 5 m/s 750 mmHg 78%
17:00 +12°C° 0.1 mm 5 m/s 750 mmHg 81%
18:00 +12°C° 0.1 mm 4 m/s 750 mmHg 84%
19:00 +12°C° 0.1 mm 5 m/s 750 mmHg 85%
20:00 +10°C° 0.1 mm 5 m/s 750 mmHg 86%
21:00 +10°C° 0.1 mm 6 m/s 750 mmHg 88%
22:00 +10°C° 0.3 mm 6 m/s 749 mmHg 88%
23:00 +10°C° 0.3 mm 6 m/s 749 mmHg 89%

29 Janeiro, Sexta-feira

Tempo Temperatura Precipitação Vento Pressão Humidade
00:00 +11°C° 0.3 mm 7 m/s 749 mmHg 90%
01:00 +10°C° 0.4 mm 6 m/s 749 mmHg 87%
02:00 +10°C° 0.4 mm 6 m/s 749 mmHg 85%
03:00 +10°C° 0.4 mm 5 m/s 749 mmHg 83%
04:00 +9°C° 0 mm 5 m/s 749 mmHg 84%
05:00 +10°C° 0 mm 4 m/s 749 mmHg 86%
06:00 +9°C° 0 mm 3 m/s 749 mmHg 88%
07:00 +8°C° 0 mm 4 m/s 749 mmHg 88%
08:00 +8°C° 0 mm 4 m/s 749 mmHg 87%
09:00 +8°C° 0 mm 4 m/s 749 mmHg 87%
10:00 +9°C° 0 mm 5 m/s 749 mmHg 81%
11:00 +10°C° 0 mm 5 m/s 749 mmHg 75%
12:00 +10°C° 0 mm 6 m/s 749 mmHg 70%
13:00 +10°C° 0 mm 5 m/s 749 mmHg 70%
14:00 +10°C° 0 mm 5 m/s 749 mmHg 70%
15:00 +10°C° 0 mm 5 m/s 748 mmHg 70%
16:00 +9°C° 0 mm 5 m/s 749 mmHg 74%
17:00 +10°C° 0 mm 4 m/s 749 mmHg 77%
18:00 +8°C° 0 mm 4 m/s 749 mmHg 81%
19:00 +8°C° 0 mm 4 m/s 750 mmHg 83%
20:00 +8°C° 0 mm 3 m/s 750 mmHg 86%
21:00 +7°C° 0 mm 3 m/s 750 mmHg 88%
22:00 +7°C° 0 mm 3 m/s 749 mmHg 90%
23:00 +7°C° 0 mm 3 m/s 749 mmHg 91%

30 Janeiro, Sábado

Tempo Temperatura Precipitação Vento Pressão Humidade
00:00 +5°C° 0 mm 3 m/s 749 mmHg 92%
01:00 +6°C° 0 mm 2 m/s 749 mmHg 93%
02:00 +6°C° 0 mm 2 m/s 749 mmHg 94%
03:00 +5°C° 0 mm 2 m/s 749 mmHg 95%
04:00 +5°C° 0 mm 2 m/s 748 mmHg 96%
05:00 +6°C° 0 mm 1 m/s 748 mmHg 96%
06:00 +6°C° 0 mm 1 m/s 748 mmHg 97%
07:00 +6°C° 0 mm 1 m/s 748 mmHg 95%
08:00 +7°C° 0 mm 1 m/s 749 mmHg 94%
09:00 +7°C° 0 mm 1 m/s 749 mmHg 92%
10:00 +7°C° 0 mm 1 m/s 749 mmHg 88%
11:00 +8°C° 0 mm 1 m/s 750 mmHg 84%
12:00 +8°C° 0 mm 1 m/s 750 mmHg 80%
13:00 +9°C° 0 mm 1 m/s 750 mmHg 79%
14:00 +9°C° 0 mm 1 m/s 750 mmHg 77%
15:00 +9°C° 0 mm 1 m/s 750 mmHg 76%
16:00 +8°C° 0 mm 1 m/s 750 mmHg 78%
17:00 +8°C° 0 mm 1 m/s 750 mmHg 81%
18:00 +6°C° 0 mm 0 m/s 751 mmHg 83%
19:00 +7°C° 0 mm 1 m/s 751 mmHg 84%
20:00 +7°C° 0 mm 1 m/s 751 mmHg 86%
21:00 +6°C° 0 mm 1 m/s 751 mmHg 87%
22:00 +6°C° 0 mm 1 m/s 751 mmHg 88%
23:00 +5°C° 0 mm 2 m/s 751 mmHg 90%
Mostrar mais